�N����,����,�~����,�C��,���x,�C��,����,���ϕ���,�ő�u�ԕ���,�ő厞����,���˗�,�I�_���x,�n�����x,�ő啗���N��,DTYPE
"22/07/16","00:10",0.0,22.9,94.2,995.6,301.3,1.1,1.9,328.7,0.00,22.0,24.7,"00:08:00",1
"22/07/16","00:20",0.0,22.9,94.3,995.1,314.8,1.3,2.1,321.1,0.00,22.0,24.7,"00:16:08",1
"22/07/16","00:30",0.0,22.8,94.4,995.3,294.5,1.1,2.1,312.4,0.00,21.9,24.6,"00:22:56",1
"22/07/16","00:40",0.0,22.8,94.5,995.6,283.2,1.0,1.6,300.9,0.00,21.9,24.6,"00:30:08",1
"22/07/16","00:50",0.0,22.8,94.6,995.3,291.8,1.0,1.7,317.3,0.00,21.9,24.7,"00:44:08",1
"22/07/16","01:00",0.0,22.8,94.6,995.1,288.6,0.8,1.4,264.3,0.00,21.9,24.7,"00:50:24",1
"22/07/16","01:10",0.0,22.9,94.7,995.3,312.8,1.2,1.7,313.2,0.00,22.0,24.7,"01:07:12",1
"22/07/16","01:20",0.0,23.0,94.7,995.1,315.8,0.6,1.9,325.5,0.00,22.1,24.7,"01:10:32",1
"22/07/16","01:30",0.0,23.0,94.8,995.1,298.7,1.0,1.6,323.4,0.00,22.2,24.7,"01:28:16",1
"22/07/16","01:40",0.0,22.9,94.8,995.1,315.8,1.3,2.0,321.0,0.00,22.1,24.6,"01:35:04",1
"22/07/16","01:50",0.0,22.9,94.9,994.8,284.7,1.0,1.3,311.6,0.00,22.1,24.7,"01:41:44",1
"22/07/16","02:00",0.0,22.9,94.9,994.8,308.2,1.5,2.2,334.1,0.00,22.1,24.5,"01:53:20",1
"22/07/16","02:10",0.0,22.9,95.0,994.6,288.1,1.0,1.3,298.0,0.00,22.1,24.5,"02:09:36",1
"22/07/16","02:20",0.0,22.9,95.0,994.8,296.5,1.0,1.7,319.7,0.00,22.1,24.5,"02:14:32",1
"22/07/16","02:30",0.0,23.0,95.1,994.6,298.2,1.1,1.6,319.4,0.00,22.2,24.7,"02:29:12",1
"22/07/16","02:40",0.0,23.1,95.1,994.4,309.1,0.7,1.4,328.3,0.00,22.3,24.6,"02:32:16",1
"22/07/16","02:50",0.0,23.1,95.2,994.4,302.1,1.1,2.2,338.3,0.00,22.3,24.5,"02:49:44",1
"22/07/16","03:00",0.0,23.2,95.2,994.6,291.7,1.0,3.1,338.3,0.00,22.4,24.3,"02:50:56",1
"22/07/16","03:10",0.0,23.2,95.2,994.4,278.5,0.8,1.2,318.4,0.00,22.4,24.5,"03:01:36",1
"22/07/16","03:20",0.0,23.2,95.2,994.4,312.9,0.8,1.2,314.4,0.00,22.4,24.5,"03:15:44",1
"22/07/16","03:30",0.0,23.1,95.2,994.1,320.6,1.3,1.9,332.3,0.00,22.3,24.6,"03:23:28",1
"22/07/16","03:40",0.0,23.0,95.2,994.4,280.2,0.8,1.4,337.8,0.00,22.2,24.4,"03:30:08",1
"22/07/16","03:50",0.0,22.9,95.3,994.6,299.3,1.0,1.4,324.0,0.00,22.1,24.5,"03:46:40",1
"22/07/16","04:00",0.0,23.0,95.4,994.6,303.9,1.1,1.8,316.9,0.00,22.3,24.4,"03:56:56",1
"22/07/16","04:10",0.0,23.0,95.4,994.6,340.5,1.2,1.6,340.6,0.00,22.3,24.5,"04:03:44",1
"22/07/16","04:20",0.0,22.9,95.4,994.8,291.9,1.0,1.2,333.0,0.00,22.2,24.3,"04:10:56",1
"22/07/16","04:30",0.0,22.8,95.4,994.6,296.7,0.8,1.2,321.6,0.00,22.1,24.4,"04:28:32",1
"22/07/16","04:40",0.0,22.7,95.5,994.6,302.1,0.6,1.1,318.3,0.00,22.0,24.3,"04:30:32",1
"22/07/16","04:50",0.0,22.6,95.5,995.3,315.2,1.2,1.6,327.1,0.00,21.9,24.4,"04:44:48",1
"22/07/16","05:00",0.0,22.7,95.6,994.6,308.8,1.0,1.3,304.6,0.00,22.0,24.4,"04:54:00",1
"22/07/16","05:10",0.0,22.7,95.7,994.6,309.7,0.8,1.0,314.9,0.00,22.0,24.4,"05:06:56",1
"22/07/16","05:20",0.0,22.9,95.6,994.8,313.2,1.2,1.6,322.5,0.00,22.2,24.5,"05:18:08",1
"22/07/16","05:30",0.0,22.8,95.7,994.4,308.3,1.0,1.7,309.0,0.00,22.1,24.5,"05:23:20",1
"22/07/16","05:40",0.0,22.9,95.7,994.4,313.8,0.6,1.0,306.4,0.00,22.2,24.5,"05:30:02",1
"22/07/16","05:50",0.0,23.0,95.7,994.6,322.4,1.1,1.4,327.4,0.00,22.3,24.2,"05:46:16",1
"22/07/16","06:00",0.0,23.1,95.7,994.8,299.2,0.8,1.2,331.8,0.00,22.4,24.4,"05:51:28",1
"22/07/16","06:10",0.0,23.0,95.7,994.8,315.3,1.0,1.4,312.9,0.00,22.3,24.3,"06:05:04",1
"22/07/16","06:20",0.0,23.1,95.8,994.6,315.0,1.1,1.7,325.7,0.00,22.4,24.5,"06:15:04",1
"22/07/16","06:30",0.0,23.2,95.8,995.1,292.0,0.6,1.1,262.6,0.00,22.5,24.4,"06:21:20",1
"22/07/16","06:40",0.0,23.4,95.8,995.3,320.9,1.0,1.6,335.8,0.00,22.7,24.3,"06:39:28",1
"22/07/16","06:50",0.0,23.5,95.8,995.6,342.2,1.0,1.4,345.3,0.00,22.8,24.3,"06:46:24",1
"22/07/16","07:00",0.0,23.6,95.8,995.3,330.7,0.8,1.3,340.5,0.00,22.9,24.3,"06:51:20",1
"22/07/16","07:10",0.0,23.7,95.8,995.3,327.1,1.1,1.7,325.0,0.01,23.0,24.4,"07:05:52",1
"22/07/16","07:20",0.0,23.9,95.8,995.1,326.6,1.0,1.4,347.9,0.01,23.2,24.4,"07:14:00",1
"22/07/16","07:30",0.0,24.0,95.8,995.6,329.7,1.2,1.8,326.2,0.04,23.3,24.2,"07:27:52",1
"22/07/16","07:40",0.0,24.2,95.7,995.3,313.8,1.2,2.0,325.3,0.07,23.5,24.2,"07:33:44",1
"22/07/16","07:50",0.0,24.5,95.7,995.3,298.0,1.2,1.9,308.5,0.09,23.8,24.2,"07:40:08",1
"22/07/16","08:00",0.0,24.6,95.5,995.1,298.0,1.2,1.9,325.1,0.09,23.9,24.3,"07:51:44",1
"22/07/16","08:10",0.0,24.6,95.2,995.3,303.2,1.0,1.9,346.6,0.10,23.8,24.2,"08:09:24",1
"22/07/16","08:20",0.0,24.8,94.8,995.3,303.9,1.2,2.0,330.4,0.11,23.9,24.4,"08:14:24",1
"22/07/16","08:30",0.0,25.1,94.5,995.8,289.4,0.8,1.4,336.3,0.11,24.2,24.4,"08:23:36",1
"22/07/16","08:40",0.0,25.4,93.8,995.3,240.5,0.6,1.3,245.5,0.11,24.4,24.2,"08:31:04",1
"22/07/16","08:50",0.0,25.8,93.4,995.3,317.3,0.5,1.2,346.9,0.13,24.7,24.2,"08:43:52",1
"22/07/16","09:00",0.0,26.2,92.9,995.1,335.1,0.5,1.6,354.7,0.17,25.0,24.2,"08:52:40",1
"22/07/16","09:10",0.0,26.8,91.8,994.8,15.2,0.6,1.7,12.6,0.21,25.4,24.2,"09:06:40",1
"22/07/16","09:20",0.0,27.3,90.3,993.9,156.1,0.6,1.8,120.4,0.20,25.6,24.5,"09:18:08",1
"22/07/16","09:30",0.0,27.1,87.7,994.1,106.9,0.7,1.9,73.7,0.13,24.9,24.4,"09:25:20",1
"22/07/16","09:40",0.0,27.4,85.4,993.9,85.9,0.6,1.9,70.9,0.14,24.8,24.3,"09:30:02",1
"22/07/16","09:50",0.0,27.4,83.4,993.9,64.4,0.7,2.4,2.5,0.10,24.4,24.5,"09:46:48",1
"22/07/16","10:00",0.0,27.6,82.4,993.7,115.5,0.8,2.0,100.4,0.15,24.4,24.5,"09:55:28",1
"22/07/16","10:10",0.0,27.3,82.0,993.7,144.2,1.1,2.9,138.1,0.12,24.0,24.5,"10:02:40",1
"22/07/16","10:20",0.0,27.5,81.2,993.4,95.0,1.0,2.1,133.1,0.16,24.0,24.5,"10:11:12",1
"22/07/16","10:30",0.0,28.1,79.9,993.9,100.1,0.7,1.7,92.2,0.19,24.3,24.6,"10:28:32",1
"22/07/16","10:40",0.0,28.0,78.6,993.7,102.4,0.8,2.4,93.9,0.13,24.0,24.5,"10:30:40",1
"22/07/16","10:50",0.0,28.1,78.3,993.7,108.8,0.8,2.4,120.1,0.13,24.0,24.5,"10:40:02",1
"22/07/16","11:00",0.0,27.4,78.8,993.7,143.2,1.1,2.6,139.2,0.06,23.4,24.6,"10:57:52",1
"22/07/16","11:10",0.0,27.3,80.0,993.2,138.4,0.8,2.1,135.5,0.05,23.6,24.4,"11:06:24",1
"22/07/16","11:20",0.2,27.0,81.0,993.7,155.0,0.8,2.2,130.6,0.05,23.5,24.4,"11:12:32",1
"22/07/16","11:30",0.2,26.8,81.9,993.4,129.4,0.7,2.4,158.7,0.03,23.5,24.6,"11:29:28",1
"22/07/16","11:40",0.0,26.8,83.4,993.4,141.8,1.1,2.4,151.9,0.09,23.8,24.2,"11:33:28",1
"22/07/16","11:50",0.0,27.0,83.9,993.4,153.9,1.0,1.9,180.1,0.08,24.1,24.5,"11:42:56",1
"22/07/16","12:00",0.0,26.8,83.7,993.7,142.7,1.0,3.2,122.6,0.05,23.8,24.7,"11:56:48",1
"22/07/16","12:10",0.0,27.0,83.1,993.4,152.3,1.0,2.1,131.3,0.07,23.9,24.5,"12:00:56",1
"22/07/16","12:20",0.0,27.0,81.1,993.4,156.3,1.3,2.4,131.6,0.10,23.5,24.6,"12:10:24",1
"22/07/16","12:30",0.0,27.5,79.8,993.7,175.3,1.2,2.6,144.5,0.14,23.7,24.5,"12:26:24",1
"22/07/16","12:40",0.0,28.1,78.5,993.4,184.9,1.6,3.1,209.3,0.18,24.0,24.7,"12:35:36",1
"22/07/16","12:50",0.0,28.1,77.0,993.0,201.3,1.8,3.2,207.3,0.19,23.7,24.4,"12:41:36",1
"22/07/16","13:00",0.0,28.2,76.6,992.7,179.9,2.2,4.5,201.5,0.21,23.7,24.6,"12:51:28",1
"22/07/16","13:10",0.0,28.4,76.1,992.7,181.2,2.1,3.7,193.0,0.25,23.8,24.7,"13:06:48",1
"22/07/16","13:20",0.0,28.3,75.8,993.2,183.6,2.0,3.3,196.5,0.20,23.7,24.7,"13:17:04",1
"22/07/16","13:30",0.0,28.6,76.0,993.0,172.1,1.6,3.2,200.6,0.20,24.0,24.5,"13:20:24",1
"22/07/16","13:40",0.0,28.8,76.1,993.2,193.2,1.5,2.9,231.8,0.24,24.2,24.5,"13:36:16",1
"22/07/16","13:50",0.0,28.9,75.0,993.4,188.9,1.3,2.6,214.2,0.25,24.1,24.6,"13:46:08",1
"22/07/16","14:00",0.0,28.8,74.5,993.7,186.1,1.8,3.6,205.4,0.23,23.9,24.7,"13:51:52",1
"22/07/16","14:10",0.0,29.1,73.1,993.4,183.5,1.8,4.7,205.1,0.27,23.8,24.8,"14:04:16",1
"22/07/16","14:20",0.0,29.1,73.5,993.2,170.0,1.3,3.5,142.2,0.18,23.9,24.7,"14:18:08",1
"22/07/16","14:30",0.0,28.9,74.1,993.4,187.3,1.6,3.5,239.6,0.12,23.9,24.8,"14:23:28",1
"22/07/16","14:40",0.0,28.0,74.8,993.0,168.9,1.2,2.4,139.4,0.05,23.1,24.8,"14:37:28",1
"22/07/16","14:50",0.0,28.2,76.1,993.0,175.9,1.6,2.6,159.6,0.11,23.6,24.8,"14:46:24",1
"22/07/16","15:00",0.0,28.8,75.6,992.7,177.9,1.2,2.5,198.9,0.21,24.1,24.9,"14:57:52",1
"22/07/16","15:10",0.0,29.1,74.3,993.0,181.2,1.2,2.8,162.4,0.19,24.1,24.7,"15:00:16",1
"22/07/16","15:20",0.0,28.7,73.0,992.7,196.5,2.1,4.0,191.3,0.14,23.4,24.9,"15:19:12",1
"22/07/16","15:30",0.0,28.4,74.0,993.0,214.9,2.0,4.0,218.0,0.06,23.4,24.7,"15:24:16",1
"22/07/16","15:40",0.0,28.1,75.9,992.2,195.6,1.6,4.5,239.3,0.06,23.5,24.7,"15:31:28",1
"22/07/16","15:50",0.0,27.7,78.1,992.2,208.3,1.8,4.0,208.0,0.06,23.6,24.8,"15:42:00",1
"22/07/16","16:00",0.0,27.5,79.6,992.5,211.3,1.3,3.7,241.2,0.08,23.7,24.8,"15:54:08",1
"22/07/16","16:10",0.0,27.6,79.8,992.2,188.3,1.2,2.1,194.0,0.09,23.8,24.8,"16:00:56",1
"22/07/16","16:20",0.0,27.6,79.6,992.2,203.6,1.3,3.1,227.7,0.09,23.8,24.9,"16:15:36",1
"22/07/16","16:30",0.0,27.3,78.6,992.0,180.5,1.6,3.9,214.0,0.07,23.3,24.9,"16:29:12",1
"22/07/16","16:40",0.0,27.4,78.6,992.0,188.3,1.1,2.6,210.5,0.05,23.4,24.9,"16:30:08",1
"22/07/16","16:50",0.0,27.2,79.3,991.5,209.7,1.1,2.5,205.5,0.03,23.3,25.0,"16:40:40",1
"22/07/16","17:00",0.0,26.9,79.1,991.8,213.4,1.1,2.5,235.0,0.02,23.0,24.8,"16:58:08",1
"22/07/16","17:10",0.0,26.9,79.4,991.8,228.4,0.5,1.3,233.2,0.02,23.1,24.8,"17:04:56",1
"22/07/16","17:20",0.0,27.2,80.1,991.5,317.0,0.7,1.9,340.1,0.03,23.5,25.0,"17:18:24",1
"22/07/16","17:30",0.0,26.9,81.6,992.0,323.1,1.2,2.4,342.8,0.03,23.5,24.7,"17:21:20",1
"22/07/16","17:40",0.0,26.7,82.6,992.0,307.7,1.1,1.7,293.9,0.03,23.5,24.9,"17:34:08",1
"22/07/16","17:50",0.0,26.6,83.1,992.5,308.8,1.2,2.4,327.6,0.02,23.5,24.7,"17:43:36",1
"22/07/16","18:00",0.0,26.6,83.4,992.5,308.2,0.8,1.2,324.2,0.00,23.6,24.9,"17:55:52",1
"22/07/16","18:10",0.0,26.6,83.8,992.5,324.8,1.0,1.3,318.5,0.00,23.7,24.8,"18:03:28",1
"22/07/16","18:20",0.0,26.5,84.5,992.5,304.8,0.7,1.2,322.0,0.00,23.7,24.8,"18:19:28",1
"22/07/16","18:30",0.0,26.3,85.1,992.7,308.2,0.8,1.3,319.3,0.01,23.6,24.7,"18:23:36",1
"22/07/16","18:40",0.0,26.5,85.4,993.0,325.4,1.1,1.9,347.9,0.01,23.9,24.9,"18:38:40",1
"22/07/16","18:50",0.0,26.7,85.5,992.5,338.9,1.1,1.7,336.3,0.01,24.1,24.9,"18:41:04",1
"22/07/16","19:00",0.0,26.6,85.5,993.2,285.2,0.8,1.3,320.2,0.02,24.0,24.9,"18:50:16",1
"22/07/16","19:10",0.0,26.8,85.4,993.2,277.7,0.7,1.1,304.8,0.03,24.2,24.9,"19:04:32",1
"22/07/16","19:20",0.0,26.7,85.0,993.0,294.7,0.8,1.6,320.1,0.02,24.0,25.0,"19:19:36",1
"22/07/16","19:30",0.0,26.5,84.7,993.0,326.4,1.1,1.8,326.4,0.00,23.8,25.2,"19:20:56",1
"22/07/16","19:40",0.0,26.5,85.1,993.0,325.7,0.8,1.4,348.9,0.00,23.8,24.8,"19:32:48",1
"22/07/16","19:50",0.0,26.1,85.8,993.4,274.1,0.7,1.0,269.7,0.00,23.6,24.8,"19:45:12",1
"22/07/16","20:00",0.0,25.8,86.4,993.2,320.6,0.8,1.4,324.7,0.00,23.4,24.9,"19:52:32",1
"22/07/16","20:10",0.0,25.5,87.0,993.2,319.3,0.7,1.0,324.6,0.00,23.2,25.1,"20:02:32",1
"22/07/16","20:20",0.0,25.4,87.7,993.7,346.2,1.1,1.6,20.5,0.00,23.3,24.8,"20:10:56",1
"22/07/16","20:30",0.0,25.2,88.3,993.7,343.9,1.0,1.6,345.2,0.00,23.2,25.1,"20:27:36",1
"22/07/16","20:40",0.0,25.1,88.8,993.4,333.1,1.0,1.7,340.8,0.00,23.2,25.2,"20:36:24",1
"22/07/16","20:50",0.0,24.9,89.2,993.4,263.8,0.5,1.0,338.0,0.00,23.0,24.9,"20:40:08",1
"22/07/16","21:00",0.0,24.8,89.6,993.2,267.0,0.5,1.1,291.5,0.00,23.0,24.7,"20:57:44",1
"22/07/16","21:10",0.0,24.7,89.9,993.0,264.8,0.5,0.9,261.7,0.00,23.0,24.7,"21:04:00",1
"22/07/16","21:20",0.0,24.7,90.2,992.5,323.0,1.0,1.9,328.3,0.00,23.0,24.8,"21:10:02",1
"22/07/16","21:30",0.0,24.6,90.4,992.7,322.3,1.1,1.8,333.3,0.00,23.0,24.8,"21:22:00",1
"22/07/16","21:40",0.0,24.6,90.6,992.7,308.9,0.6,1.2,268.5,0.00,23.0,24.6,"21:33:12",1
"22/07/16","21:50",0.0,24.5,90.8,993.0,296.5,0.7,1.0,320.4,0.00,22.9,24.9,"21:44:32",1
"22/07/16","22:00",0.0,24.4,91.0,993.0,312.4,0.7,1.3,337.9,0.00,22.9,25.0,"21:57:04",1
"22/07/16","22:10",0.0,24.2,91.1,993.0,313.8,1.3,2.0,331.9,0.00,22.7,24.8,"22:06:00",1
"22/07/16","22:20",0.0,24.3,91.2,992.7,314.1,1.3,2.2,332.8,0.00,22.8,24.7,"22:19:12",1
"22/07/16","22:30",0.0,24.3,91.2,993.0,287.2,0.8,1.4,314.0,0.00,22.8,24.8,"22:20:32",1
"22/07/16","22:40",0.0,24.2,91.2,992.7,262.1,0.8,1.2,263.2,0.00,22.7,24.8,"22:32:08",1
"22/07/16","22:50",0.0,24.1,91.3,993.0,311.7,1.0,1.4,325.5,0.00,22.6,24.6,"22:43:04",1
"22/07/16","23:00",0.0,24.1,91.4,993.2,310.0,1.1,1.7,331.9,0.00,22.7,24.6,"22:54:00",1
"22/07/16","23:10",0.0,24.1,91.5,993.4,308.1,1.0,1.8,318.5,0.00,22.7,24.7,"23:09:04",1
"22/07/16","23:20",0.0,24.2,91.5,993.4,310.4,1.0,1.8,323.5,0.00,22.8,24.6,"23:12:40",1
"22/07/16","23:30",0.0,24.3,91.5,993.4,345.9,0.5,1.3,336.8,0.00,22.9,24.8,"23:22:24",1
"22/07/16","23:40",0.0,24.2,91.6,993.2,320.8,1.0,1.4,320.9,0.00,22.8,24.6,"23:31:20",1
"22/07/16","23:50",0.0,24.0,91.7,993.0,283.1,0.5,0.6,294.5,0.00,22.6,24.7,"23:40:16",1
"22/07/16","24:00",0.0,24.0,91.7,993.0,282.7,0.5,0.8,270.9,0.00,22.6,24.7,"23:56:48",1
